Location: Kermapucano
(48.0667°N, 3.3000°W)
Time: 20:42:39
(UTC+00:00)

Aureole 2 Rocket - Pass Details

Date: 29 November 2020
Orbit: 289 x 388 km, 73.9° (Epoch: 24 January)

Event Time Altitude Azimuth Distance (km) Brightness Sun altitude
Rises 06:50:29 0° 226° (SW) 1,959 5.4 -8.2°
Reaches altitude 10° 06:52:33 10° 242° (WSW) 1,143 4.1 -7.8°
Maximum altitude 06:54:37 23° 300° (WNW) 683 2.7 -7.5°
Drops below altitude 10° 06:56:44 10° 357° (N) 1,165 4.2 -7.2°
Sets 06:58:51 0° 13° (NNE) 1,997 5.6 -6.9°
